Location: Chassagnes
(44.4047°N, 4.1657°E)
Time: 12:57:50
(UTC+00:00)

Atlas Centaur 2 - Pass Details

Date: 27 October 2020
Orbit: 459 x 1309 km, 30.4° (Epoch: 23 November)

Event Time Altitude Azimuth Distance (km) Brightness Sun altitude
Rises 19:08:34 0° 246° (WSW) 4,240 6.7 -27.2°
Reaches altitude 10° 19:11:53 10° 236° (WSW) 3,308 5.8 -27.8°
Maximum altitude 19:18:59 30° 180° (S) 2,133 4.1 -29.0°
Enters shadow 19:19:58 29° 168° (SSE) 2,153 4.0 -29.2°
